, CO

(GMT )
Cottonwood Pass

Weather History for K7BM - August, 2014

Change the Weather History Date:

Friday, August 8, 2014

  Actual Average Record
Temperature  
Mean Temperature 62 °F -  
Max Temperature 73 °F - - ()
Min Temperature 50 °F - - ()
Degree Days  
Heating Degree Days 4    
Growing Degree Days 12 (Base 50)    
Moisture  
Dew Point 29 °F    
Average Humidity 37    
Maximum Humidity 71    
Minimum Humidity 9    
Precipitation  
Precipitation 0.00 in - - ()
Sea Level Pressure  
Sea Level Pressure 30.43 in    
Wind  
Wind Speed 4 mph (WNW)    
Max Wind Speed 13 mph    
Max Gust Speed 24 mph    
Visibility 10 miles    
Events      
T = Trace of Precipitation, MM = Missing Value Source: NWS Daily Summary

Daily Weather History Graph

Daily Weather History Graph

Search for Another Location

Airport or City:

Trip Planner

Search our weather history database for the weather conditions in past years. The results will help you decide how hot, cold, wet, or windy it might be!

Date:

Astronomy

Aug. 08, 2014 Rise Set
Actual Time 6:12 AM MDT 8:08 PM MDT
Civil Twilight 5:43 AM MDT 8:36 PM MDT
Nautical Twilight 5:08 AM MDT 9:12 PM MDT
Astronomical Twilight 4:29 AM MDT 9:49 PM MDT
Moon 6:21 PM MDT (8/8) 3:48 AM MDT (8/8)
Length of Visible Light 14h 53m
Length of Day
13h 55m
Waxing Gibbous, 94% of the Moon is Illuminated
Aug 8
Waxing Gibbous
Aug 10
Full
Aug 17
Last Quarter
Aug 25
New
Sep 2
First Quarter

Hourly Weather History & Observations

Time (MDT) Temp. Dew Point Humidity Pressure Visibility Wind Dir Wind Speed Gust Speed Precip Events Conditions
12:14 AM 55.4 °F 35.6 °F 47% 30.46 in 10.0 mi SE 8.1 mph - N/A   Clear
12:34 AM 53.6 °F 35.6 °F 51% 30.46 in 10.0 mi SE 3.5 mph - N/A   Clear
12:53 AM 55.4 °F 35.6 °F 47% 30.46 in 10.0 mi Calm Calm - N/A   Clear
1:14 AM 55.4 °F 35.6 °F 47% 30.47 in 10.0 mi Calm Calm - N/A   Clear
1:34 AM 55.4 °F 35.6 °F 47% 30.46 in 10.0 mi Calm Calm - N/A   Clear
1:54 AM 55.4 °F 41.0 °F 58% 30.46 in 10.0 mi ESE 3.5 mph - N/A   Scattered Clouds
2:14 AM 53.6 °F 37.4 °F 54% 30.45 in 10.0 mi West 3.5 mph - N/A   Mostly Cloudy
2:34 AM 53.6 °F 37.4 °F 54% 30.45 in 10.0 mi West 3.5 mph - N/A   Scattered Clouds
2:54 AM 53.6 °F 37.4 °F 54% 30.45 in 10.0 mi Calm Calm - N/A   Clear
3:14 AM 53.6 °F 41.0 °F 62% 30.45 in 10.0 mi South 3.5 mph - N/A   Clear
3:34 AM 51.8 °F 42.8 °F 71% 30.44 in 10.0 mi SE 4.6 mph - N/A   Clear
3:54 AM 51.8 °F 42.8 °F 71% 30.44 in 10.0 mi Calm Calm - N/A   Clear
4:14 AM 51.8 °F 39.2 °F 62% 30.44 in 10.0 mi Calm Calm - N/A   Clear
4:34 AM 51.8 °F 37.4 °F 58% 30.43 in 10.0 mi West 5.8 mph - N/A   Clear
4:54 AM 51.8 °F 37.4 °F 58% 30.43 in 10.0 mi West 4.6 mph - N/A   Clear
5:13 AM 51.8 °F 37.4 °F 58% 30.44 in 10.0 mi Calm Calm - N/A   Clear
5:34 AM 50.0 °F 37.4 °F 62% 30.44 in 10.0 mi West 4.6 mph - N/A   Clear
5:54 AM 50.0 °F 37.4 °F 62% 30.44 in 10.0 mi NW 4.6 mph - N/A   Clear
6:13 AM 50.0 °F 37.4 °F 62% 30.44 in 10.0 mi WNW 4.6 mph - N/A   Clear
6:34 AM 50.0 °F 37.4 °F 62% 30.44 in 10.0 mi West 5.8 mph - N/A   Clear
6:53 AM 51.8 °F 41.0 °F 67% 30.44 in 10.0 mi Calm Calm - N/A   Clear
7:14 AM 51.8 °F 41.0 °F 67% 30.45 in 10.0 mi Calm Calm - N/A   Clear
7:34 AM 51.8 °F 37.4 °F 58% 30.45 in 10.0 mi North 3.5 mph - N/A   Clear
7:53 AM 53.6 °F 37.4 °F 54% 30.45 in 10.0 mi Calm Calm - N/A   Clear
8:14 AM 53.6 °F 41.0 °F 62% 30.45 in 10.0 mi Calm Calm - N/A   Clear
8:34 AM 55.4 °F 44.6 °F 67% 30.45 in 10.0 mi Calm Calm - N/A   Clear
8:55 AM 57.2 °F 44.6 °F 63% 30.45 in 10.0 mi Calm Calm - N/A   Clear
9:14 AM 59.0 °F 44.6 °F 59% 30.45 in 10.0 mi Calm Calm - N/A   Clear
9:34 AM 59.0 °F 44.6 °F 59% 30.45 in 10.0 mi Calm Calm - N/A   Clear
9:54 AM 60.8 °F 44.6 °F 55% 30.45 in 10.0 mi East 3.5 mph - N/A   Clear
10:14 AM 62.6 °F 44.6 °F 52% 30.45 in 10.0 mi ESE 3.5 mph - N/A   Clear
10:34 AM 62.6 °F 42.8 °F 48% 30.45 in 10.0 mi SE 8.1 mph - N/A   Clear
10:54 AM 64.4 °F 42.8 °F 45% 30.45 in 10.0 mi ESE 8.1 mph - N/A   Clear
11:14 AM 64.4 °F 41.0 °F 42% 30.45 in 10.0 mi SE 5.8 mph - N/A   Scattered Clouds
11:34 AM 66.2 °F 41.0 °F 40% 30.44 in 10.0 mi SE 6.9 mph - N/A   Scattered Clouds
11:54 AM 68.0 °F 41.0 °F 37% 30.44 in 10.0 mi SE 11.5 mph 17.3 mph N/A   Scattered Clouds
12:14 PM 68.0 °F 41.0 °F 37% 30.44 in 10.0 mi East 4.6 mph 17.3 mph N/A   Mostly Cloudy
12:34 PM 73.4 °F 32.0 °F 22% 30.44 in 10.0 mi Calm Calm - N/A   Scattered Clouds
12:54 PM 73.4 °F 28.4 °F 19% 30.43 in 10.0 mi NNW 6.9 mph - N/A   Mostly Cloudy
1:14 PM 71.6 °F 21.2 °F 15% 30.42 in 10.0 mi North 5.8 mph - N/A   Mostly Cloudy
1:34 PM 68.0 °F 21.2 °F 17% 30.42 in 10.0 mi North 6.9 mph - N/A   Mostly Cloudy
1:54 PM 69.8 °F 23.0 °F 17% 30.42 in 10.0 mi NW 5.8 mph - N/A   Overcast
2:34 PM 68.0 °F 21.2 °F 17% 30.42 in 10.0 mi NNW 5.8 mph - N/A   Mostly Cloudy
2:54 PM 69.8 °F 19.4 °F 15% 30.42 in 10.0 mi WSW 12.7 mph 19.6 mph N/A   Mostly Cloudy
3:14 PM 68.0 °F 19.4 °F 16% 30.41 in 10.0 mi WNW 3.5 mph - N/A   Mostly Cloudy
3:33 PM 71.6 °F 17.6 °F 13% 30.41 in 10.0 mi NNW 4.6 mph 19.6 mph N/A   Scattered Clouds
3:54 PM 71.6 °F 15.8 °F 12% 30.40 in 10.0 mi NNW 4.6 mph - N/A   Clear
4:14 PM 71.6 °F 10.4 °F 9% 30.40 in 10.0 mi West 6.9 mph 23.0 mph N/A   Clear
4:34 PM 71.6 °F 8.6 °F 9% 30.40 in 10.0 mi West 6.9 mph 24.2 mph N/A   Clear
4:54 PM 71.6 °F 10.4 °F 9% 30.40 in 10.0 mi NNW 8.1 mph - N/A   Clear
5:14 PM 73.4 °F 10.4 °F 9% 30.40 in 10.0 mi Calm Calm - N/A   Clear
5:34 PM 73.4 °F 10.4 °F 9% 30.40 in 10.0 mi Calm Calm - N/A   Clear
5:53 PM 71.6 °F 12.2 °F 10% 30.40 in 10.0 mi Calm Calm - N/A   Clear
6:14 PM 71.6 °F 10.4 °F 9% 30.39 in 10.0 mi North 4.6 mph - N/A   Clear
6:34 PM 69.8 °F 12.2 °F 11% 30.39 in 10.0 mi North 5.8 mph - N/A   Clear
6:54 PM 69.8 °F 15.8 °F 13% 30.40 in 10.0 mi North 3.5 mph - N/A   Clear
7:14 PM 68.0 °F 15.8 °F 13% 30.40 in 10.0 mi West 3.5 mph - N/A   Clear
7:34 PM 68.0 °F 15.8 °F 13% 30.40 in 10.0 mi Calm Calm - N/A   Clear
7:53 PM 66.2 °F 14.0 °F 13% 30.41 in 10.0 mi WNW 6.9 mph 17.3 mph N/A   Clear
8:14 PM 64.4 °F 17.6 °F 16% 30.41 in 10.0 mi Calm Calm - N/A   Clear
8:33 PM 62.6 °F 19.4 °F 19% 30.42 in 10.0 mi WNW 3.5 mph - N/A   Clear
8:54 PM 62.6 °F 19.4 °F 19% 30.43 in 10.0 mi NNW 3.5 mph - N/A   Clear
9:14 PM 62.6 °F 19.4 °F 19% 30.43 in 10.0 mi NNW 3.5 mph - N/A   Clear
9:34 PM 60.8 °F 19.4 °F 20% 30.44 in 10.0 mi WNW 5.8 mph - N/A   Clear
9:54 PM 60.8 °F 19.4 °F 20% 30.45 in 10.0 mi WNW 5.8 mph - N/A   Clear
10:14 PM 60.8 °F 19.4 °F 20% 30.45 in 10.0 mi West 6.9 mph - N/A   Clear
10:34 PM 60.8 °F 19.4 °F 20% 30.45 in 10.0 mi West 6.9 mph - N/A   Clear
11:13 PM 60.8 °F 19.4 °F 20% 30.46 in 10.0 mi SW 4.6 mph - N/A   Clear
11:33 PM 60.8 °F 21.2 °F 22% 30.46 in 10.0 mi SSW 3.5 mph - N/A   Clear
11:54 PM 60.8 °F 21.2 °F 22% 30.46 in 10.0 mi South 4.6 mph - N/A   Clear